Theta_e
339 341 329 322 321 319 320 319 308 312 310 305 307 309 312 322 323 320 320 323 320 328 331 333 332 331 327 328 330 330 330 324 327 317 316 329 342 344 349 348 347 347 347 350 353 354 351 347 346 346 346 347 347 347 347 347 347 346 347 348 348 349 349 348 348 347 348 348 347 347 347 346 347 347 346 346 346 345 345 346 346 346 346 346 346 346 346 345 345 345 346 345 345 346 346 346 346
333 329 324 321 320 319 315 320 311 307 308 304 307 312 315 321 320 317 318 322 325 328 332 333 333 332 332 332 331 330 330 332 332 330 336 339 342 344 344 348 347 347 349 350 353 353 350 349 346 346 346 345 345 346 346 345 346 347 347 348 348 348 348 348 347 347 347 347 346 346 346 346 346 346 346 346 346 346 346 345 345 345 345 345 345 345 345 345 345 345 345 345 344 345 346 346 346
327 323 318 320 322 319 319 316 307 305 303 301 307 312 320 316 316 321 324 327 329 330 332 331 332 331 329 329 326 325 322 335 334 336 335 341 338 339 345 347 347 348 350 350 349 351 351 348 346 346 346 344 343 345 345 345 345 347 347 347 347 347 347 347 347 347 347 346 346 345 344 346 346 346 346 346 346 346 346 345 345 344 345 345 345 345 345 345 344 344 345 345 345 345 346 345 345
330 324 319 321 316 319 313 310 309 304 301 304 307 314 317 317 319 323 327 328 330 331 330 328 326 330 328 322 327 329 327 329 335 336 333 335 338 342 345 347 348 350 350 350 351 352 351 348 346 346 345 343 342 343 344 346 346 347 347 346 346 346 346 346 346 346 346 346 345 346 346 346 345 345 345 345 345 345 345 345 345 345 345 345 345 345 345 345 345 344 345 345 345 344 345 345 345
323 321 322 321 317 311 312 310 308 305 301 306 305 315 318 320 323 324 326 329 329 330 328 328 327 331 331 329 329 324 327 334 335 338 338 340 343 344 345 345 347 347 348 349 349 349 351 346 346 346 345 346 345 345 345 344 345 346 345 346 346 346 345 345 345 345 345 345 345 345 345 345 345 344 344 344 344 344 345 345 345 345 345 344 344 345 345 345 345 344 344 343 344 344 344 344 345
322 322 325 323 315 319 314 305 304 304 312 312 309 315 320 322 322 324 326 329 329 330 328 326 324 325 326 328 331 327 334 325 334 335 339 339 342 344 345 344 345 346 348 350 349 350 351 346 346 345 346 346 345 345 345 345 345 346 346 345 345 346 346 345 345 344 344 345 345 345 345 345 345 344 345 344 345 345 345 344 344 345 345 345 344 345 345 345 345 344 345 345 345 345 345 345 344
320 321 320 319 316 315 307 305 304 306 313 319 314 318 321 323 324 325 328 327 328 328 330 326 326 327 324 328 329 333 337 337 334 336 341 341 343 346 345 343 346 347 349 349 348 350 350 346 345 344 346 345 345 346 345 345 345 346 345 346 345 345 345 345 345 345 345 346 345 344 344 345 344 344 344 345 345 344 342 343 344 344 345 345 346 345 345 345 345 345 345 346 346 345 345 345 344
323 317 315 310 307 310 305 305 306 309 312 321 320 321 324 324 326 325 325 323 323 324 328 329 328 325 325 332 322 333 337 340 339 343 342 339 340 344 344 343 345 347 347 347 348 348 347 344 343 343 344 345 345 346 345 344 344 344 345 345 345 345 346 345 345 345 345 344 344 344 344 344 344 344 344 343 343 342 343 344 344 344 345 345 345 345 346 346 346 346 346 346 346 345 345 345 345
320 317 318 312 307 310 305 304 308 318 316 321 322 327 328 326 327 326 323 326 326 328 326 328 328 322 325 325 326 332 335 340 341 342 341 342 343 343 343 343 345 347 348 348 346 347 347 345 344 344 345 345 345 346 345 344 344 344 345 345 345 344 344 344 344 344 344 344 344 344 343 343 344 342 341 341 342 343 343 343 344 344 344 344 344 344 344 346 346 347 346 345 345 346 346 345 345
317 316 308 311 309 304 305 306 306 311 315 320 324 325 326 329 328 326 323 324 326 327 329 330 329 324 327 322 325 330 332 340 340 340 341 343 345 346 346 346 348 348 347 348 347 345 345 346 343 344 344 345 345 345 345 344 343 343 343 344 344 344 343 343 343 343 343 343 343 344 343 343 342 341 341 341 342 343 344 344 344 344 344 343 343 343 343 343 342 343 345 346 346 346 347 345 345
311 314 317 309 305 305 303 305 309 314 317 322 324 327 328 329 326 324 324 326 328 326 327 331 326 325 325 324 326 334 338 341 339 335 339 343 346 346 346 348 349 348 347 349 349 347 344 347 345 344 344 344 344 344 344 343 343 343 342 342 341 341 342 342 343 343 343 343 343 343 343 341 341 341 341 342 342 342 342 343 344 343 343 344 344 344 343 342 342 342 343 344 346 347 347 347 345
310 309 311 307 306 304 306 307 308 313 318 321 322 326 329 328 328 324 324 322 326 327 326 325 323 328 324 324 324 333 337 338 336 338 340 343 342 346 346 345 347 347 349 349 350 348 347 347 346 345 345 345 344 344 343 344 342 341 341 341 341 341 341 343 343 343 343 343 343 342 341 340 340 340 341 340 340 340 341 341 342 343 342 343 344 344 343 342 341 340 342 345 346 346 348 348 347
311 312 308 307 307 307 308 308 309 313 316 318 321 327 329 327 324 323 321 326 326 323 325 328 330 330 320 322 328 333 332 337 338 337 338 341 343 344 346 346 346 347 348 349 349 348 348 349 348 347 345 345 344 344 344 342 342 342 341 341 342 343 342 342 343 344 343 343 342 342 341 342 341 341 340 340 340 339 340 341 341 341 342 342 343 344 343 342 341 340 339 341 343 346 348 348 348
312 311 310 307 310 308 307 308 312 310 311 319 326 329 330 326 324 324 323 320 323 321 328 330 330 328 324 326 325 327 330 335 336 339 339 343 345 345 345 344 345 344 345 347 348 349 349 350 350 350 349 348 346 346 344 343 343 343 343 343 342 342 342 341 342 342 343 343 343 343 343 343 342 341 340 339 340 339 339 339 339 339 340 340 340 341 341 341 340 340 339 339 340 342 344 348 348
311 314 314 308 307 308 310 306 308 308 310 321 326 327 328 329 326 326 323 320 326 330 330 333 331 324 320 321 321 328 332 335 337 338 340 342 344 344 344 343 343 343 343 346 347 348 349 349 349 349 350 348 348 347 348 346 344 344 342 343 343 343 341 341 341 340 340 339 339 339 338 337 338 337 338 339 338 338 338 337 337 338 338 338 338 338 339 339 338 339 337 338 338 340 343 346 349
315 314 313 307 306 307 308 309 311 309 311 322 326 329 328 327 329 326 328 330 328 330 331 325 331 326 326 326 329 333 336 337 337 339 338 339 342 343 342 342 342 343 343 346 346 348 349 349 348 347 348 349 349 349 349 348 343 343 343 343 343 343 341 340 339 338 339 337 338 336 335 335 334 334 334 335 335 336 337 337 337 335 336 336 336 336 336 337 337 336 337 336 337 340 344 346 349
318 319 309 308 305 306 309 309 310 306 315 322 328 327 323 324 329 329 332 333 327 326 328 329 329 330 329 329 333 335 337 340 338 336 338 338 337 337 337 338 339 341 343 345 344 344 347 348 348 347 349 350 349 348 346 345 341 341 342 341 341 339 338 337 336 335 334 336 335 335 335 337 338 336 334 333 332 334 335 335 336 335 334 334 334 334 334 334 334 334 335 335 335 337 347 347 348
314 309 308 306 308 307 311 311 312 317 315 322 326 326 324 321 325 327 330 328 327 326 325 327 330 329 331 333 335 336 338 339 336 334 332 333 334 332 332 335 335 335 338 339 344 346 346 347 347 347 347 347 345 341 340 339 340 339 340 340 341 339 335 334 336 336 333 337 334 335 337 335 333 333 333 330 332 331 331 333 334 334 333 333 332 333 332 333 332 333 333 333 332 333 340 342 346
309 311 309 305 308 311 314 315 316 314 315 324 324 326 325 324 325 327 321 323 323 321 323 325 324 328 330 333 333 335 337 336 335 335 334 333 330 330 331 333 335 336 336 337 339 344 345 345 347 345 345 342 341 340 339 338 336 336 336 336 338 336 337 337 336 335 335 334 334 333 333 334 331 330 330 329 330 328 330 331 331 330 331 332 332 330 331 331 330 331 331 331 332 335 334 333 340
315 311 306 308 314 315 318 317 316 322 321 321 323 325 325 326 325 330 322 320 323 319 319 321 321 323 327 329 331 334 335 335 335 333 333 333 332 332 333 334 333 333 334 335 338 343 342 341 344 343 341 340 337 336 337 338 336 336 334 335 335 335 335 334 334 334 333 335 334 334 333 333 332 332 327 325 325 329 328 327 327 327 328 330 332 328 330 331 331 331 330 334 337 333 332 330 333
310 312 307 311 314 313 318 319 319 320 321 322 323 325 322 325 325 325 322 318 318 319 322 321 321 324 327 329 330 333 333 333 333 333 333 333 333 334 335 335 333 334 335 337 337 341 343 344 344 341 341 339 337 335 336 335 335 333 332 333 332 332 333 332 332 333 334 333 332 332 331 331 330 329 328 328 326 327 326 328 328 328 329 329 328 329 328 326 329 327 327 327 328 330 331 332 333
313 315 314 314 316 314 319 320 322 322 325 323 325 322 321 327 323 322 322 316 314 320 324 326 325 326 331 327 328 331 331 331 331 332 332 333 332 332 334 335 338 337 336 334 338 341 344 345 344 341 340 338 336 334 334 333 333 330 331 330 330 331 331 330 330 332 332 332 330 329 330 329 328 326 328 327 326 326 325 324 326 328 327 328 330 328 326 327 327 327 326 326 326 330 330 332 334
310 315 317 318 319 316 320 321 321 322 322 321 321 324 326 323 320 322 322 320 322 327 327 327 328 329 330 330 329 330 330 329 330 331 332 332 333 334 335 335 334 333 336 336 338 340 343 346 344 341 337 336 335 335 334 332 331 331 330 328 328 328 329 330 328 329 331 330 328 328 326 325 325 325 325 325 323 325 324 323 323 326 327 326 328 327 327 328 326 325 325 327 326 326 328 330 330
314 312 319 321 321 320 322 321 322 323 323 322 326 327 322 322 316 323 321 322 324 325 328 329 330 331 331 327 329 329 329 329 330 333 332 334 334 334 335 332 333 334 334 336 337 337 340 344 345 341 336 334 334 333 332 329 330 330 330 329 328 327 328 328 328 328 329 329 328 328 326 325 323 323 325 324 322 323 322 324 325 323 324 324 327 327 326 325 325 325 327 326 324 326 325 328 329
314 316 321 320 322 321 322 323 325 327 325 326 325 321 321 322 320 322 320 322 324 327 328 329 329 329 329 329 329 329 328 329 331 334 334 333 334 334 334 333 334 335 333 335 334 335 338 343 343 339 335 333 333 331 329 328 329 329 328 327 327 328 329 329 328 329 327 326 327 327 327 326 324 325 324 323 323 323 323 323 322 322 324 324 326 324 326 326 325 324 325 325 325 325 325 328 328
318 320 323 323 322 324 324 324 324 325 325 327 322 319 321 322 324 319 321 323 326 327 327 328 328 327 328 328 330 329 328 329 331 332 333 333 334 332 332 332 333 333 334 333 331 332 334 339 337 335 334 333 333 331 330 328 327 326 327 328 329 329 327 329 329 326 325 325 325 327 326 325 325 323 323 321 320 321 321 323 324 324 323 324 324 325 325 324 324 324 324 324 323 323 324 326 327
324 321 323 322 322 324 324 323 324 326 325 325 319 317 319 323 321 313 322 324 326 326 326 328 328 326 326 326 328 329 329 329 330 333 332 332 332 331 331 332 333 334 334 330 330 331 332 332 332 333 332 334 332 329 328 328 328 327 328 328 327 328 327 328 327 326 325 326 327 329 327 327 326 325 324 322 320 318 320 321 321 323 322 323 324 324 326 325 324 323 324 324 325 323 323 325 325
322 322 321 320 322 324 323 323 324 324 321 324 321 317 319 320 319 315 320 325 326 325 326 326 325 325 324 327 327 327 327 330 330 333 330 329 328 330 331 330 334 334 331 330 330 331 331 331 331 331 333 332 330 328 328 327 328 327 329 327 326 328 328 326 323 325 325 326 327 328 328 328 328 326 326 323 321 318 318 318 319 322 322 323 324 324 324 325 324 323 324 325 326 326 324 324 326
320 321 314 317 320 317 321 319 322 323 319 323 323 316 314 315 313 320 323 325 325 324 322 323 324 324 324 326 325 325 327 329 330 329 330 330 331 332 331 333 334 331 330 330 330 331 331 331 331 332 332 330 328 326 326 328 328 327 327 327 327 327 327 326 325 326 327 328 329 329 330 329 329 327 326 324 321 317 318 318 317 319 321 323 325 325 324 325 324 323 325 325 324 325 324 324 323
321 320 317 314 314 313 318 320 320 319 320 322 320 304 309 313 317 320 323 322 323 322 320 321 322 323 323 324 325 326 326 328 329 328 330 331 332 333 332 334 333 330 329 330 331 330 331 331 332 331 330 328 328 328 328 326 328 327 326 325 327 326 325 324 326 328 328 327 329 330 329 328 327 326 324 323 320 318 318 316 316 316 319 323 323 324 321 322 322 322 321 322 321 323 322 323 322
314 317 317 310 307 307 315 318 318 316 320 321 318 305 309 314 316 320 321 323 321 318 319 320 322 322 323 324 325 325 326 329 330 332 333 333 333 334 332 331 330 330 329 328 328 329 331 330 330 328 328 327 328 326 325 327 327 326 325 325 326 326 326 325 326 327 326 328 329 328 329 328 327 326 325 323 319 317 315 314 314 314 320 321 319 321 321 322 323 323 322 321 322 321 320 320 320
316 309 306 311 307 310 315 320 316 313 315 320 318 308 308 312 315 319 321 322 321 318 319 320 320 321 322 323 323 323 327 330 332 333 334 334 334 330 329 329 330 330 329 329 329 330 328 329 330 327 328 328 328 326 326 327 326 326 326 325 326 326 324 326 325 327 327 327 328 329 329 328 327 326 324 321 319 316 313 312 313 318 319 318 319 319 320 320 322 323 324 322 319 317 319 320 321
312 308 306 306 308 309 311 315 317 318 315 319 317 307 310 311 316 318 321 321 320 318 318 320 320 321 322 323 324 324 325 327 330 331 333 334 333 329 329 330 329 330 330 329 328 329 327 329 328 327 327 326 326 325 325 326 326 324 325 325 323 325 325 325 326 328 328 329 328 327 328 328 326 325 324 321 319 316 313 313 313 317 318 317 318 318 317 320 321 321 323 323 321 318 317 316 318
306 309 306 308 306 308 306 314 316 317 316 312 316 311 311 313 316 318 319 321 318 317 318 319 320 320 321 323 324 325 324 324 326 329 332 335 331 329 330 330 330 330 330 330 329 328 326 327 327 327 327 326 326 324 326 325 326 325 324 324 326 325 326 326 327 327 328 327 328 327 327 327 326 325 322 320 318 315 314 313 315 316 317 318 317 316 318 321 322 322 322 323 320 319 316 316 315
304 305 305 306 308 309 307 308 313 315 314 313 313 312 312 313 315 316 318 319 318 317 317 318 319 319 321 321 323 323 323 324 325 328 332 333 330 329 329 330 330 329 329 329 328 327 326 326 327 327 327 326 325 325 327 326 326 325 324 325 325 325 327 328 326 326 327 329 327 327 327 327 326 324 321 318 318 314 313 314 316 316 317 317 318 316 317 320 322 321 320 321 322 320 317 317 315
306 308 307 309 306 306 307 312 316 316 312 312 311 310 311 311 312 315 316 318 316 316 318 318 319 320 320 321 321 321 322 323 327 328 331 331 330 330 329 329 329 329 329 328 327 327 326 326 326 327 326 325 324 325 325 322 321 321 320 322 321 322 324 325 327 327 329 328 328 327 327 327 324 322 319 318 317 316 314 314 316 316 316 316 316 316 316 318 321 320 318 317 317 317 317 316 316
309 310 310 309 308 309 311 312 315 317 314 311 312 311 310 311 312 314 316 317 316 316 316 317 319 319 319 320 321 321 322 323 326 328 329 330 329 329 329 329 329 329 328 327 326 326 325 324 325 325 325 325 322 320 321 321 320 319 320 320 320 323 324 326 326 329 328 327 327 326 326 324 323 321 318 316 316 314 314 314 315 315 315 316 315 315 317 318 320 321 319 318 316 315 314 316 314
309 309 309 307 310 307 310 312 315 317 313 310 312 311 311 312 313 315 316 315 314 314 315 316 317 319 319 320 321 321 323 326 326 326 329 329 328 327 329 328 329 326 327 326 326 326 325 324 324 325 325 323 321 322 321 322 321 320 320 320 320 322 322 322 324 327 327 327 328 328 327 325 322 321 319 317 316 313 314 312 313 315 315 315 315 315 316 317 318 318 318 316 316 315 314 315 315
308 310 308 307 308 310 312 313 315 316 314 311 311 309 311 313 313 315 314 314 315 317 316 317 317 318 319 320 321 322 323 324 325 326 327 328 328 327 327 328 328 327 326 326 327 326 325 324 324 326 324 324 321 323 322 323 323 324 323 321 321 322 326 327 326 327 327 325 327 326 326 324 321 318 317 314 313 314 315 314 313 314 316 315 314 314 314 314 316 316 317 314 312 313 313 314 317
309 308 307 305 308 307 304 312 313 315 313 311 311 309 311 314 315 315 316 315 316 318 318 319 320 319 319 320 321 322 323 323 324 325 326 327 326 328 327 326 327 326 326 326 325 325 325 325 325 324 325 325 324 322 323 325 326 326 326 326 327 325 325 327 328 328 326 326 325 326 325 323 321 319 316 313 312 315 315 314 314 314 315 315 313 312 313 311 314 314 315 316 316 311 311 313 314
309 308 309 306 306 308 310 307 312 314 314 313 311 309 310 312 310 311 314 316 317 316 317 318 319 322 322 323 324 324 323 323 323 325 325 326 326 327 327 327 327 326 325 326 326 325 323 324 325 324 323 325 324 323 324 326 326 325 325 326 327 326 326 326 325 324 325 325 326 325 323 322 321 318 318 315 313 313 315 315 313 314 314 315 314 312 311 311 310 311 313 314 316 312 310 311 312
308 307 308 308 308 308 310 311 310 308 307 311 310 302 303 310 311 311 313 313 312 316 316 316 317 319 321 321 323 324 323 325 324 324 325 325 326 327 328 328 327 326 325 326 326 325 325 324 324 325 324 325 325 325 325 324 323 322 322 321 320 320 320 322 321 322 323 323 321 325 323 321 320 319 317 315 313 313 314 314 314 312 314 313 313 312 312 309 309 309 311 312 311 314 311 308 307
304 306 310 309 310 310 310 309 310 304 301 309 312 302 295 306 309 311 313 312 312 315 315 316 317 317 318 320 322 323 323 323 325 325 325 325 326 327 328 327 327 326 327 327 327 326 324 324 325 324 325 325 326 325 325 324 323 323 323 321 321 321 319 322 326 325 324 323 325 324 323 323 320 319 318 316 315 314 315 314 314 313 313 313 313 313 310 308 306 308 311 311 311 313 313 309 309
305 309 311 311 310 309 309 310 309 307 307 309 309 308 302 301 308 312 314 312 312 313 314 316 317 318 317 320 322 323 323 324 324 324 325 326 326 327 327 327 328 327 328 327 327 327 326 325 325 323 324 325 326 326 324 324 323 323 323 322 322 321 321 323 325 326 327 327 325 324 324 322 321 320 318 317 316 314 315 313 314 313 311 311 310 310 310 309 308 309 312 312 311 312 313 310 309
306 311 312 311 311 311 311 310 309 308 305 303 307 307 302 302 308 312 313 309 310 311 313 315 317 318 319 320 321 322 324 325 325 324 325 326 326 327 328 328 329 329 328 327 328 327 327 326 325 325 325 325 325 325 323 322 324 323 323 322 321 323 324 325 325 326 326 327 326 325 324 323 322 320 319 318 316 314 314 313 312 311 311 310 309 309 309 309 310 311 310 310 310 309 311 311 309
311 313 314 313 312 312 311 309 308 307 304 300 305 307 300 301 308 308 312 310 309 311 313 315 317 318 319 320 321 322 323 325 324 324 325 326 327 328 329 329 329 328 329 330 329 327 327 326 326 324 325 325 326 325 323 322 323 324 322 323 322 322 324 325 326 325 325 327 325 325 324 322 321 320 319 318 317 315 315 314 310 309 311 309 308 309 310 310 310 309 310 310 310 309 309 310 308
315 313 311 311 311 310 310 310 308 306 296 301 303 305 304 297 305 309 307 308 311 313 315 316 317 318 319 321 322 322 322 323 324 324 325 327 328 328 329 328 329 330 330 330 329 326 327 326 327 324 324 324 326 325 324 323 323 323 322 322 324 323 323 324 324 325 325 326 325 325 324 323 322 321 320 320 317 316 316 315 313 310 312 312 311 309 310 308 309 309 308 308 308 308 308 308 309
313 310 309 308 307 309 307 307 307 297 294 301 304 304 306 296 302 308 312 314 314 314 313 315 316 317 318 320 321 322 323 323 324 324 324 326 327 328 328 328 329 329 330 329 328 327 326 325 325 324 324 325 326 325 325 323 322 322 323 323 322 323 323 322 323 322 323 323 325 324 325 324 323 321 321 320 319 317 317 314 313 312 311 312 310 311 310 309 310 309 308 308 308 308 308 308 308
311 310 308 302 297 301 294 302 293 295 295 302 305 304 302 301 304 309 311 312 314 315 316 316 317 317 319 319 320 321 322 323 323 324 324 325 326 327 328 328 328 329 328 328 327 327 326 324 324 323 323 325 325 325 324 324 323 322 322 323 324 324 324 323 322 323 324 325 325 325 325 323 323 321 320 320 319 318 316 315 314 312 312 312 311 309 310 310 310 309 309 308 307 306 306 307 305
309 307 305 300 294 292 288 294 297 298 301 307 306 306 301 303 307 310 311 313 315 317 318 319 319 319 319 320 320 320 322 322 323 323 324 325 327 327 329 329 329 329 329 329 327 327 326 325 324 323 323 325 325 325 325 324 323 323 324 323 323 323 323 324 324 324 324 326 326 325 325 325 323 323 321 320 318 317 316 315 315 314 313 312 311 311 310 310 310 308 309 307 307 306 307 307 306
309 310 306 303 301 297 288 294 289 292 297 303 306 302 297 298 304 312 313 314 315 316 317 319 320 321 321 321 321 321 321 322 323 323 323 325 327 329 328 329 329 329 329 329 328 327 326 324 324 323 323 323 324 324 324 323 323 324 324 323 324 325 322 323 324 325 326 324 326 326 326 326 325 325 322 322 319 318 317 315 314 314 312 312 312 311 310 311 311 309 308 309 309 308 308 307 306
310 310 309 304 302 306 297 299 298 299 297 298 302 298 303 304 311 313 315 314 315 316 316 318 319 320 321 320 320 320 321 321 322 323 324 327 328 329 329 329 329 329 330 329 328 327 326 324 324 323 323 324 323 324 323 323 323 324 324 324 324 325 324 324 324 326 327 327 327 325 327 328 327 326 324 321 320 318 316 315 314 313 313 312 312 311 311 310 310 310 308 309 308 307 308 307 306
306 307 303 305 309 306 299 299 304 302 296 293 298 304 307 309 309 311 313 313 314 315 315 316 318 319 321 319 320 320 321 322 323 323 324 326 328 329 329 330 329 329 328 328 328 327 327 325 323 323 323 324 323 324 324 323 324 324 324 324 324 325 324 325 325 326 326 327 327 327 327 327 329 328 324 322 320 319 317 316 315 313 313 313 312 311 309 310 311 310 309 308 308 308 308 305 307
308 303 306 309 312 309 301 294 295 295 292 292 301 298 299 300 294 309 310 310 312 314 314 316 319 319 319 320 321 321 321 322 323 324 325 327 328 328 328 329 330 329 329 328 329 329 328 326 323 322 322 323 323 323 323 323 323 324 324 324 324 325 324 324 325 325 326 327 327 328 328 328 328 327 325 322 320 319 318 316 315 314 314 313 312 311 310 310 311 310 310 309 308 309 308 308 307
309 308 312 304 298 297 303 297 289 289 289 292 298 299 300 301 303 307 308 309 311 313 315 316 317 318 318 320 321 323 323 323 323 323 324 325 327 328 329 329 329 330 330 328 328 327 327 326 322 323 323 324 323 323 323 323 324 323 323 324 325 325 325 325 324 325 327 327 326 327 328 328 330 328 325 322 320 319 318 316 316 314 313 312 311 311 310 310 310 310 309 308 308 309 308 307 307
311 312 308 310 306 303 300 301 299 300 291 291 293 298 296 304 305 306 307 309 312 313 314 315 317 318 318 320 320 321 322 323 323 324 324 325 327 328 329 329 328 328 328 328 328 327 326 325 323 323 324 325 324 323 324 324 323 324 323 324 326 325 324 324 325 325 326 325 324 326 327 330 331 328 325 323 320 319 318 317 316 314 312 312 310 310 310 310 310 310 309 309 308 308 307 307 307
305 305 305 305 306 308 305 304 300 298 292 292 291 291 299 305 308 307 309 310 312 313 314 315 316 318 320 321 321 322 323 324 324 324 324 326 327 328 329 330 328 328 328 328 327 327 325 325 323 323 323 324 324 324 324 325 325 324 325 325 325 325 324 324 324 325 326 326 327 328 328 330 332 328 326 323 321 320 319 318 316 315 313 312 311 310 310 310 310 309 309 309 307 307 306 307 307
307 305 305 306 304 301 297 294 303 301 298 292 292 290 302 306 310 311 310 312 312 314 314 315 316 318 321 322 324 324 323 326 326 325 326 326 328 328 328 328 328 328 327 326 326 326 324 324 322 323 323 323 323 323 324 324 325 325 325 325 325 326 325 324 325 326 326 326 328 329 330 330 331 329 327 323 322 321 320 318 316 315 314 313 312 310 310 310 309 309 309 307 307 306 306 306 306
Wind_Speed
8 8 2 4 4 6 6 7 7 5 7 4 3 7 6 3 6 8 6 6 5 4 4 4 3 4 4 6 9 8 10 7 7 7 5 3 3 8 9 6 7 8 8 7 7 6 8 9 8 7 7 7 6 6 8 9 9 9 9 10 10 10 10 10 10 10 11 11 10 9 9 9 9 9 8 8 8 8 7 7 6 6 6 6 5 5 5 6 6 7 7 7 8 8 9 10 9
6 3 3 4 6 6 6 6 6 5 5 4 4 0 8 7 6 6 7 3 5 5 4 5 6 7 7 6 6 5 12 10 9 8 7 7 8 7 8 7 7 8 7 6 5 5 6 8 8 8 7 7 5 7 8 8 9 10 10 10 10 10 10 10 10 10 10 10 9 9 9 9 9 9 8 9 9 9 8 7 7 6 6 6 5 5 5 5 6 6 6 7 7 8 9 9 9
4 5 5 5 5 7 2 4 6 4 4 6 6 3 7 7 6 5 6 7 8 6 5 5 6 4 3 2 3 7 6 8 7 7 6 7 6 4 7 8 8 7 7 6 5 5 5 7 6 9 9 7 6 7 9 10 10 10 10 10 10 10 10 10 10 10 10 10 10 9 9 8 8 9 9 9 9 9 8 7 7 7 7 7 6 6 5 5 5 6 6 7 7 8 9 9 8
3 5 6 8 7 6 6 5 7 4 6 2 6 7 7 7 7 7 8 8 6 4 3 5 2 3 5 2 5 4 6 6 7 4 7 4 4 5 7 7 7 6 6 5 5 5 5 7 7 7 8 7 7 6 7 10 9 9 9 9 10 10 10 10 10 10 10 9 9 10 9 9 8 9 9 9 9 9 8 8 8 7 7 7 7 6 6 5 5 6 6 6 6 7 8 8 7
6 6 5 7 6 7 6 2 3 4 5 2 4 8 6 8 9 9 8 6 4 2 2 4 3 5 8 8 3 1 7 10 8 6 5 5 8 7 7 5 6 7 7 6 5 6 7 9 8 8 9 9 11 11 10 8 8 8 8 10 10 10 10 10 10 10 10 9 9 9 9 8 9 9 10 9 9 9 8 8 8 8 7 7 7 6 6 6 6 6 6 6 6 7 7 7 7
6 5 5 6 5 5 4 6 5 4 6 5 6 8 9 8 10 9 8 5 5 3 3 3 3 5 3 6 6 4 8 2 5 5 4 3 7 8 8 5 6 7 7 6 5 5 7 9 9 10 9 9 11 11 10 9 9 10 11 11 11 10 10 10 10 10 9 9 9 9 9 9 9 9 10 9 9 9 9 9 8 8 7 7 6 6 6 6 6 6 6 6 6 6 7 6 7
7 7 6 7 4 4 5 3 2 3 5 4 6 10 10 10 9 9 7 6 3 4 1 2 3 7 6 6 9 7 5 4 3 4 6 6 5 7 7 5 6 8 7 6 6 6 8 9 10 9 9 9 11 11 11 10 11 11 10 10 10 10 10 10 10 10 10 10 10 10 10 10 9 9 9 9 9 9 10 10 10 9 8 7 7 6 6 7 6 6 6 6 6 6 6 6 6
4 7 7 8 6 7 4 1 3 1 6 3 8 11 10 10 9 8 8 4 5 3 4 4 1 2 8 1 2 5 5 7 8 8 11 7 2 7 6 6 6 8 7 7 6 6 9 9 9 9 9 10 11 11 11 10 10 11 10 10 10 10 9 9 10 10 10 10 10 10 9 9 9 9 10 10 10 11 11 11 11 10 10 9 8 7 6 5 5 5 5 5 5 5 6 5 6
7 7 3 7 6 4 4 3 6 4 9 6 7 8 9 9 7 6 5 3 5 3 5 3 3 5 6 6 7 6 6 5 8 10 10 8 5 7 4 6 6 7 7 6 7 5 7 11 9 10 12 12 12 12 10 10 10 10 10 10 10 10 9 9 10 10 10 10 10 9 9 9 10 10 11 11 12 12 12 12 11 11 10 10 9 9 9 7 5 4 4 4 4 4 5 5 5
6 7 8 5 3 6 4 5 7 7 8 7 9 10 9 7 6 4 4 5 4 5 5 2 2 4 6 6 7 6 4 6 8 9 7 8 7 7 7 7 7 7 7 7 8 6 7 11 12 11 10 12 13 12 11 11 10 9 8 9 9 10 10 9 9 9 9 9 9 9 9 10 10 11 12 12 12 12 12 12 12 11 10 10 10 10 10 9 8 6 4 3 2 3 3 4 5
7 6 3 6 7 4 5 7 5 8 8 8 9 9 8 6 6 5 3 4 4 3 6 1 4 6 5 7 5 2 4 7 7 8 8 7 7 7 7 7 6 6 7 7 8 8 7 7 11 11 12 13 12 11 11 10 9 10 9 9 10 9 8 7 9 9 8 8 8 9 10 10 11 12 12 13 13 13 12 12 12 11 10 10 10 10 10 9 8 7 6 4 2 3 3 4 6
6 8 7 6 5 4 4 5 9 8 10 9 9 8 6 6 5 5 5 6 5 4 4 3 2 3 5 6 5 5 5 6 8 8 8 6 6 7 7 6 7 7 7 8 7 7 8 7 7 8 11 12 12 11 11 10 9 9 9 8 8 7 7 7 9 9 9 9 10 10 10 11 11 12 12 12 12 12 12 12 12 11 11 11 10 11 10 10 9 8 7 7 5 3 4 4 6
7 7 8 7 3 3 5 7 7 9 9 10 11 6 4 6 5 3 5 4 6 6 7 4 5 2 3 4 6 6 7 5 10 10 5 3 7 6 7 8 8 7 7 7 8 8 8 7 7 7 9 11 11 11 10 9 9 7 5 4 4 6 9 10 10 10 10 11 11 11 11 11 12 12 13 12 12 11 12 12 12 12 12 11 11 12 12 11 10 9 8 8 8 7 6 6 7
6 6 6 3 2 3 6 6 9 9 8 10 7 8 5 4 2 2 4 5 3 1 6 3 0 2 5 6 7 7 6 7 10 10 7 6 5 7 9 8 8 7 6 6 7 7 7 7 6 7 7 7 8 10 10 8 8 8 8 7 9 10 10 11 10 10 10 10 10 10 10 11 11 12 12 12 12 11 11 12 12 12 12 12 12 12 12 11 11 10 9 9 9 8 8 8 9
5 3 4 4 5 7 4 7 11 10 8 10 8 9 6 4 1 2 1 3 6 5 5 4 5 4 3 4 6 8 9 10 10 10 8 7 6 7 8 8 7 7 6 6 6 6 6 7 6 6 6 6 7 7 7 8 8 8 10 10 10 10 11 11 10 10 10 10 10 9 10 10 10 10 11 12 12 12 11 11 12 12 11 11 11 11 12 11 11 11 10 9 9 8 8 8 10
2 7 4 6 6 6 7 5 9 8 7 10 10 8 7 5 3 3 4 7 6 4 4 4 5 5 3 5 9 11 12 12 10 11 9 9 8 7 8 8 7 6 5 6 6 5 5 5 5 5 5 5 6 6 7 8 9 10 10 10 10 10 10 10 10 10 10 10 10 9 7 6 7 8 8 8 11 12 12 11 12 11 11 11 11 11 11 11 10 10 10 9 8 8 7 9 11
3 6 7 5 6 6 8 6 8 6 11 10 11 11 8 6 3 4 2 1 5 6 4 5 5 1 7 6 9 11 12 11 11 11 10 8 7 7 6 7 6 5 4 5 5 5 4 5 5 5 6 6 7 7 6 7 7 9 9 10 10 9 9 9 8 8 8 7 6 6 4 5 6 6 6 7 8 9 11 11 11 11 11 10 10 10 10 10 10 9 9 8 6 5 10 10 12
5 7 6 7 4 6 9 7 5 8 12 12 12 10 8 8 6 5 5 5 4 5 5 5 4 6 5 8 9 9 10 11 11 10 9 8 7 6 6 6 6 5 5 5 5 5 4 5 5 6 6 7 7 5 5 5 6 5 7 6 6 6 6 6 5 5 4 5 6 4 5 5 5 6 6 6 6 8 9 10 10 10 10 9 8 9 9 9 9 9 7 6 3 1 7 9 6
7 5 6 3 4 7 8 8 5 7 11 11 12 9 7 7 8 6 6 6 6 6 5 5 6 7 6 9 10 10 10 10 8 7 8 9 7 8 6 5 5 5 5 6 6 5 4 5 5 6 7 7 7 6 5 5 6 5 6 6 5 5 5 4 4 3 4 5 6 5 5 5 6 6 6 6 5 7 8 8 8 8 8 8 5 5 6 5 5 6 6 4 4 8 6 5 7
4 5 5 5 7 9 6 7 6 1 10 12 12 9 7 8 5 5 6 5 6 5 5 6 5 7 10 10 8 8 8 9 8 8 8 6 7 7 7 7 6 5 5 5 7 4 5 6 7 7 8 7 5 5 5 5 5 4 4 4 4 3 3 3 4 4 5 5 5 4 4 4 4 4 5 5 4 4 5 5 5 4 4 6 8 2 5 6 4 7 3 6 6 1 3 2 4
6 6 2 8 10 11 7 6 6 5 8 11 11 9 9 7 5 5 4 5 6 3 2 1 5 7 10 10 10 8 7 8 8 8 8 8 6 6 6 6 6 5 4 6 5 7 6 6 6 7 6 5 5 4 4 4 4 4 4 3 3 2 2 2 3 4 5 4 5 4 5 5 5 5 5 5 5 5 5 5 4 5 5 5 5 5 5 5 4 4 3 0 3 2 3 2 3
3 4 5 11 8 8 6 5 7 5 7 10 12 11 9 7 5 5 6 6 3 1 4 2 4 8 12 11 8 6 7 7 8 8 8 8 8 7 6 5 6 5 5 5 7 7 6 6 6 6 6 5 4 4 5 4 3 4 3 3 2 2 3 3 3 3 4 4 4 5 4 5 4 5 6 6 5 4 5 4 4 4 5 5 5 5 5 5 4 4 4 4 3 3 3 3 3
4 5 8 5 3 8 5 6 6 5 8 9 10 7 9 7 4 2 3 3 3 3 4 3 5 8 9 9 8 8 8 8 7 7 7 7 8 8 7 6 7 6 5 6 6 6 6 5 6 7 6 5 5 4 3 4 4 3 3 4 3 3 2 3 4 5 5 5 5 5 4 4 5 5 6 6 6 5 5 4 4 4 4 4 5 4 5 4 4 4 4 4 3 3 3 3 2
3 8 6 7 5 9 6 6 5 5 7 7 8 10 7 9 8 4 3 4 4 2 3 5 8 10 9 9 8 8 8 8 7 7 5 7 7 8 8 7 6 5 5 7 6 6 6 7 7 7 6 5 5 4 4 3 4 3 3 2 3 3 3 5 5 5 5 5 5 5 4 5 5 6 6 6 6 6 5 5 4 4 4 4 4 4 4 4 4 4 4 4 4 4 4 3 3
6 8 7 8 8 8 8 8 9 9 9 9 10 8 7 5 3 6 5 3 2 5 5 7 8 9 9 8 9 7 6 7 7 6 4 4 7 7 7 6 6 6 7 7 7 6 7 6 7 7 6 6 4 3 4 3 3 3 4 4 5 4 5 5 5 5 5 6 6 6 6 6 6 6 7 6 6 6 5 5 5 5 5 4 4 4 4 3 4 3 3 4 3 3 4 4 3
4 10 8 8 8 9 9 10 9 9 6 7 8 6 4 4 6 4 4 4 3 5 6 7 8 9 9 9 9 8 7 7 7 6 6 6 7 9 8 7 6 6 7 7 8 8 7 7 8 7 6 5 4 3 3 3 3 3 5 5 5 5 5 5 5 5 5 6 6 7 7 7 6 7 7 7 6 6 6 5 5 5 5 4 4 4 4 4 4 3 3 4 4 4 5 4 3
9 12 10 10 11 9 6 9 8 7 7 5 6 6 6 4 6 4 5 4 4 7 7 7 7 8 8 8 8 7 7 8 7 6 7 7 8 8 8 8 7 7 8 8 7 7 7 7 7 7 6 5 4 4 4 4 4 4 4 4 5 5 6 6 5 5 6 6 6 6 7 7 7 7 7 7 6 6 6 5 5 5 5 5 4 4 3 3 3 4 4 4 4 5 5 4 4
13 14 12 11 9 7 8 8 8 6 5 3 5 6 6 5 5 1 7 6 6 7 7 7 8 8 8 7 7 6 6 7 6 7 9 9 7 7 8 7 8 9 9 9 7 7 7 8 7 7 6 6 5 5 4 4 4 4 4 5 6 6 6 5 6 6 6 6 6 6 6 6 6 7 7 7 7 7 6 6 5 5 5 4 4 4 4 3 4 4 5 4 4 4 4 4 4
13 13 10 10 9 8 6 6 6 3 5 5 6 7 7 6 5 5 6 6 6 8 8 8 7 7 8 7 6 6 6 7 6 7 9 8 8 7 8 8 9 9 7 8 8 8 8 8 7 7 6 6 5 5 4 3 4 5 5 6 6 6 6 5 6 6 6 6 5 6 6 6 6 6 6 7 7 6 6 6 5 5 5 4 4 4 4 2 2 2 4 3 3 4 4 5 5
10 6 7 9 7 6 6 5 6 4 6 5 6 4 7 7 5 6 7 6 6 8 8 7 6 7 7 7 6 6 6 7 8 8 8 7 8 8 9 10 10 8 8 7 9 9 7 6 5 5 6 6 5 4 3 4 4 5 6 6 7 6 6 7 6 6 6 5 6 6 6 7 6 6 7 7 6 6 6 6 6 5 5 4 4 3 3 3 3 3 3 3 3 3 5 5 5
7 6 6 5 6 6 8 6 7 6 7 6 6 5 4 6 7 8 7 7 8 8 8 7 6 7 7 6 6 7 7 7 8 9 10 9 8 8 10 10 10 8 8 9 10 9 8 7 6 5 6 6 6 5 5 6 6 6 6 6 6 6 7 7 6 6 6 6 6 6 6 6 7 7 7 6 6 6 6 6 6 6 5 4 4 4 3 3 3 3 3 3 3 4 5 6 6
6 7 6 5 5 7 9 5 8 6 8 6 4 6 4 6 8 7 7 7 7 7 7 8 7 7 8 7 7 7 7 8 9 9 10 10 9 10 10 10 10 9 10 10 9 9 9 8 7 7 7 6 6 5 5 7 7 6 6 7 7 7 7 7 7 6 6 6 5 5 6 6 7 7 7 7 6 6 6 6 6 5 5 4 4 4 4 3 4 3 3 3 3 5 5 6 6
6 6 4 5 5 7 8 9 7 6 9 8 7 2 3 4 8 8 9 8 8 7 8 8 7 8 9 8 7 7 8 9 9 10 11 10 9 10 10 10 9 10 9 10 10 9 9 9 8 8 7 7 7 7 8 8 7 7 7 8 8 7 7 7 7 6 6 6 6 6 6 6 6 7 7 7 6 6 6 6 5 5 4 5 4 4 4 4 3 3 4 4 4 5 6 7 7
6 5 3 3 5 7 4 9 9 7 7 7 9 6 4 5 9 9 8 8 8 8 8 8 7 7 8 9 9 9 9 10 11 11 12 10 9 11 10 10 10 10 10 10 10 9 9 9 8 7 7 7 7 7 8 8 7 8 8 7 7 7 7 7 6 6 6 6 6 6 5 5 6 6 7 6 6 6 6 6 6 5 5 4 4 4 5 4 4 3 4 4 4 4 5 6 7
5 5 4 6 5 7 5 6 10 10 9 7 7 6 4 4 7 8 9 8 8 8 8 9 9 9 9 9 10 11 10 10 11 11 13 11 12 12 11 11 10 10 9 10 10 9 9 8 7 8 7 7 7 8 8 8 8 8 8 8 8 7 7 6 6 7 6 6 5 6 6 5 5 6 7 7 6 6 6 6 6 6 5 5 5 5 5 5 5 4 5 5 4 5 5 5 6
4 5 4 4 5 7 5 5 9 12 10 7 7 3 5 6 6 8 8 8 9 8 8 8 10 10 9 9 9 10 10 11 10 12 13 11 11 11 10 10 10 9 9 9 10 10 9 9 8 7 7 7 7 8 8 8 8 8 8 7 7 7 7 7 6 6 6 6 5 6 6 5 6 6 7 7 7 6 6 6 6 6 5 5 6 6 5 5 5 5 5 6 6 6 5 6 6
5 5 4 5 4 6 5 6 9 10 7 6 5 3 4 5 8 9 10 9 8 8 9 9 10 10 10 10 10 10 10 11 11 12 12 12 12 12 11 10 10 10 10 10 11 10 11 9 9 8 7 7 7 8 7 7 7 8 7 7 7 7 7 6 6 5 5 5 6 6 5 5 6 6 7 7 6 6 6 6 6 6 6 6 6 6 6 6 4 4 4 4 5 5 5 5 5
4 4 3 5 4 6 5 6 8 8 7 6 4 5 4 5 8 9 10 10 10 10 11 10 10 10 9 11 10 10 10 9 12 12 13 13 11 13 11 10 11 11 10 11 10 10 9 10 10 8 7 7 7 7 7 7 7 7 7 7 7 8 7 7 6 5 4 5 5 5 4 5 5 6 6 6 7 7 6 6 6 6 5 6 6 7 7 6 5 3 3 4 3 4 4 4 3
3 3 4 4 4 7 5 4 7 7 6 3 6 6 5 6 8 9 10 10 9 10 11 11 11 11 10 11 11 11 10 11 12 12 13 12 13 14 11 10 11 11 12 11 10 10 9 9 9 8 7 7 7 7 7 7 6 7 7 6 6 6 5 5 6 5 4 5 4 4 5 5 5 6 6 6 6 6 6 6 6 6 6 5 5 6 7 7 5 4 2 2 4 3 4 3 4
4 5 5 3 7 7 5 6 7 8 5 1 5 6 5 6 7 9 9 10 9 9 11 11 11 12 12 12 12 12 13 12 13 13 14 12 11 11 11 11 11 11 11 11 10 11 8 8 8 8 7 7 7 7 7 8 7 6 6 6 5 6 6 4 4 4 5 4 5 4 5 4 5 6 7 7 6 6 6 6 5 6 6 6 6 6 6 7 6 4 3 2 0 2 2 3 5
3 0 1 4 6 3 2 7 8 6 7 4 4 6 5 8 9 9 10 9 9 10 10 11 11 11 11 11 12 13 14 13 14 15 14 13 13 13 12 12 12 11 11 11 11 10 7 9 9 9 8 7 7 8 7 7 8 8 7 7 6 5 4 5 5 5 4 3 3 3 4 4 5 5 5 6 6 6 5 5 6 6 6 6 5 6 6 6 6 6 5 4 4 2 3 3 4
5 5 1 3 4 5 5 11 9 6 6 7 6 6 6 10 10 10 11 11 12 12 13 14 14 13 12 13 13 13 13 13 14 15 15 14 13 13 12 13 12 11 12 11 11 11 9 9 9 9 8 8 7 9 9 8 7 7 7 7 7 6 6 5 5 4 4 3 4 4 4 4 4 4 5 6 6 5 5 6 5 6 6 5 5 5 5 5 6 6 5 4 5 5 3 3 5
4 2 2 3 4 5 7 8 7 4 1 6 4 7 1 4 9 11 12 14 14 13 14 15 15 15 14 13 13 13 14 14 14 14 13 14 13 13 13 13 13 12 11 11 11 11 10 9 9 9 8 8 8 9 10 7 7 7 8 8 7 7 6 5 3 3 3 3 3 3 4 3 4 4 4 5 5 5 5 5 5 5 6 6 5 6 6 6 7 7 6 6 5 4 3 4 3
6 5 3 6 6 6 7 6 4 2 2 4 6 5 6 3 7 11 14 14 14 15 15 15 15 16 17 16 15 14 14 14 13 14 14 14 14 14 14 14 13 12 11 11 11 11 11 10 9 10 9 9 8 8 10 8 7 8 8 8 7 7 6 5 4 3 3 3 3 3 3 3 3 3 3 4 4 5 4 5 5 5 5 5 5 6 6 6 6 6 7 6 6 5 5 4 4
4 5 6 6 6 5 4 3 1 2 3 4 6 3 6 3 7 8 13 12 14 15 16 17 17 17 17 16 15 16 16 15 15 14 14 15 14 14 13 13 13 13 12 11 11 11 11 11 10 10 10 9 9 9 9 9 7 8 8 7 7 6 5 5 4 4 4 3 3 2 2 3 3 3 3 3 4 4 4 4 5 5 4 5 5 6 6 7 7 7 6 6 6 6 5 5 4
5 6 5 5 5 4 3 2 2 2 4 2 3 3 5 0 7 8 10 10 12 14 16 17 18 18 18 17 17 16 16 15 15 15 15 15 14 14 13 12 13 12 11 11 12 11 11 10 10 11 11 9 9 10 9 9 9 8 9 8 9 7 6 5 4 4 4 4 4 3 3 2 3 3 2 3 4 4 3 3 4 5 5 5 6 7 7 7 6 7 6 6 6 6 5 6 6
11 9 9 7 5 4 2 1 2 2 2 4 2 2 5 3 7 6 8 8 10 10 12 14 16 17 17 17 17 16 15 15 14 15 15 14 14 14 14 13 13 12 11 12 12 12 11 11 11 11 11 10 10 10 10 10 9 9 9 9 9 8 7 6 5 5 4 4 3 4 3 3 2 3 2 2 3 4 3 3 3 4 5 4 4 5 5 6 6 6 6 7 7 6 5 6 6
10 6 5 5 4 3 3 3 2 3 3 4 1 1 3 6 6 5 6 5 7 8 11 15 18 19 18 17 16 17 16 15 15 15 15 15 15 14 14 13 13 13 12 12 12 12 11 11 11 11 11 11 11 11 11 10 10 10 9 9 9 8 7 6 6 6 5 5 4 3 3 3 3 3 2 2 2 3 2 3 3 3 4 4 4 4 4 5 5 5 4 4 5 6 5 5 5
5 4 5 5 2 3 2 4 2 1 5 4 1 3 5 6 6 4 5 6 6 6 5 12 16 19 19 18 18 16 16 16 15 14 14 14 15 15 14 14 13 13 13 14 13 12 12 12 12 11 11 12 11 11 11 11 10 10 9 9 9 7 7 7 7 6 5 4 3 4 4 3 4 3 3 3 4 3 3 2 2 2 3 3 4 4 5 5 5 5 5 5 5 6 5 5 5
4 5 3 4 1 1 1 1 1 1 4 3 1 2 5 1 4 3 2 4 4 6 6 6 12 16 18 18 17 16 16 16 15 15 14 14 14 14 14 14 14 13 14 14 14 13 12 11 12 12 12 12 11 12 12 12 11 10 10 9 8 8 7 7 6 6 6 4 3 3 3 3 3 4 4 4 4 4 3 2 2 3 3 4 4 4 4 4 4 5 5 5 5 5 5 6 5
3 2 3 3 3 2 1 2 3 3 4 4 3 5 3 3 3 1 3 4 2 3 6 7 8 13 16 17 17 18 17 16 15 15 14 14 14 15 14 14 13 13 14 14 13 14 13 12 12 13 12 13 12 12 12 13 10 11 10 10 9 8 7 7 6 5 4 5 4 3 3 3 3 4 4 4 5 4 4 3 4 4 4 4 4 4 5 5 4 4 5 5 4 4 4 4 4
2 1 2 4 1 1 4 5 5 5 3 2 3 2 4 5 3 3 4 5 5 5 7 8 10 10 14 15 17 17 16 16 15 15 15 15 15 14 13 13 13 12 14 14 15 14 13 12 13 13 13 13 13 13 13 12 11 10 11 10 10 8 7 6 6 6 4 4 3 3 3 3 3 4 4 6 6 5 5 5 5 5 5 5 5 5 5 4 4 4 4 4 4 3 4 4 4
3 5 2 3 3 4 0 2 3 2 3 1 1 3 4 5 3 4 2 3 3 4 7 9 11 11 12 14 15 16 16 16 16 15 15 15 14 14 14 14 13 13 13 14 14 14 14 13 12 14 13 12 13 13 13 12 11 11 11 11 10 9 8 8 7 7 6 5 4 4 3 3 4 4 5 5 6 6 5 5 5 5 5 5 5 4 4 5 4 4 4 4 4 4 3 3 3
7 3 4 4 0 4 2 2 2 3 2 2 2 4 3 1 2 3 3 3 3 4 7 10 10 11 12 12 14 16 16 16 17 16 16 16 15 16 15 14 15 14 15 15 15 14 13 13 13 14 13 13 14 14 13 12 13 12 11 11 11 10 9 9 8 7 6 5 5 5 4 4 5 5 6 6 6 7 6 6 5 5 5 5 5 4 4 5 4 3 4 4 4 4 3 3 3
5 5 4 6 3 4 3 2 1 2 2 2 4 3 3 7 5 3 5 2 4 4 7 10 12 12 12 12 14 15 16 15 16 16 15 15 14 15 15 15 16 15 15 15 15 14 13 14 13 13 14 13 14 12 13 12 12 10 10 11 11 10 9 9 8 8 6 6 7 6 6 5 5 7 7 7 7 7 7 7 6 6 6 6 5 5 5 5 4 4 4 3 4 4 3 3 3
2 2 4 1 4 4 1 3 4 4 2 1 4 4 5 3 6 3 3 2 3 5 7 8 10 12 11 12 13 15 16 15 15 15 15 15 15 16 16 15 16 16 16 14 15 14 15 14 13 13 12 13 13 14 13 13 13 11 11 11 11 10 10 10 9 8 7 8 8 7 6 6 7 7 7 8 7 7 8 7 7 6 6 6 6 5 5 5 5 4 4 4 4 4 4 4 3
5 6 4 3 2 3 4 2 3 4 2 2 2 1 4 7 5 5 3 2 2 5 6 6 7 10 11 11 12 14 15 15 15 15 15 16 15 15 15 15 15 15 14 14 14 15 14 14 14 14 14 14 14 13 13 12 11 12 12 12 11 11 11 10 9 9 8 8 7 6 5 5 6 7 7 8 8 8 8 7 7 6 6 6 6 6 5 5 4 5 4 4 5 5 4 4 3
7 5 4 2 3 5 4 2 2 2 3 2 2 3 3 7 4 3 2 1 2 5 5 6 7 9 10 10 12 13 14 15 15 15 15 15 15 15 15 14 14 14 14 16 14 14 15 15 14 14 14 14 14 14 13 12 11 11 12 12 12 11 10 10 10 9 9 8 7 6 5 5 6 7 8 9 9 8 7 8 7 7 6 6 7 7 6 5 5 5 5 4 4 5 4 4 3
Wind_Direction
243 223 221 240 240 233 233 208 225 166 228 196 148 199 106 113 108 142 121 144 149 52 43 100 76 65 358 50 66 69 34 2 30 325 44 82 348 112 106 95 82 88 77 75 86 96 94 80 78 64 69 67 76 72 76 77 78 77 75 74 75 74 71 70 69 69 70 69 69 65 72 75 77 73 70 66 62 61 61 57 58 52 58 64 61 65 56 56 55 55 56 56 58 58 62 60 56
217 204 213 212 216 215 205 200 267 170 227 189 130 140 126 131 176 129 122 74 52 98 105 96 89 78 58 83 87 125 63 51 44 79 92 101 89 47 84 80 86 82 85 82 74 78 81 88 68 89 79 63 36 79 78 74 77 71 68 70 71 73 73 73 73 73 71 72 73 72 64 72 72 71 68 64 61 56 54 53 56 56 57 57 59 62 63 63 62 61 63 65 64 65 64 62 62
201 206 178 204 223 233 306 212 242 205 210 208 123 123 137 153 139 113 97 95 94 98 98 94 97 62 113 119 103 354 92 62 68 94 102 137 107 71 68 84 87 84 80 81 73 72 93 79 82 92 85 65 37 22 63 72 70 72 70 70 71 73 76 76 74 74 74 72 69 67 72 70 69 70 68 66 62 58 54 54 55 55 53 51 54 58 63 67 71 67 64 65 65 64 61 62 59
236 224 197 191 185 224 214 208 256 245 235 84 136 138 173 143 119 107 101 101 98 124 142 140 188 39 308 161 40 103 92 88 35 86 121 91 69 89 81 96 88 88 82 82 81 82 75 89 75 73 91 110 121 84 69 67 68 70 75 80 79 77 77 78 80 78 76 74 73 74 72 70 71 71 69 67 65 61 57 53 54 56 52 53 57 62 65 72 70 63 67 68 68 68 68 69 65
208 189 257 224 244 190 225 227 276 247 237 152 152 139 142 144 128 125 110 103 107 137 181 122 126 63 52 52 31 330 77 96 69 55 89 94 116 109 98 88 104 100 95 89 87 95 91 77 81 75 73 81 87 85 78 77 76 85 83 77 75 75 77 78 77 77 74 75 75 77 78 75 72 69 67 65 62 59 54 48 46 45 48 49 51 57 62 63 65 65 66 69 70 70 72 73 69
192 196 209 255 244 3 249 196 191 225 33 347 133 145 149 134 137 127 120 109 92 81 61 136 4 155 128 39 9 54 10 72 91 69 93 74 111 109 116 113 101 95 93 90 83 78 79 74 62 64 60 63 81 85 87 75 73 69 64 66 68 73 74 74 75 74 76 78 78 77 74 73 70 68 62 58 53 50 46 44 44 43 40 39 45 52 57 60 61 63 67 68 69 71 75 74 72
165 189 188 216 234 236 242 234 176 113 89 334 110 136 146 136 127 131 126 128 90 98 324 113 132 118 127 125 93 52 30 17 101 63 60 74 36 109 101 108 101 96 96 95 97 83 77 70 65 65 57 71 80 82 77 76 74 67 62 68 72 73 74 76 79 79 76 73 73 72 71 70 67 62 57 52 51 48 46 48 48 47 41 38 35 38 45 48 52 56 61 68 72 74 72 72 71
266 233 167 200 155 218 210 159 130 164 120 347 116 135 142 136 140 142 151 203 139 200 105 89 86 324 77 236 65 83 68 61 101 113 97 83 314 107 110 113 100 98 101 102 98 90 91 76 69 56 50 79 86 84 84 81 75 72 73 78 73 72 74 75 75 75 73 72 71 72 71 67 63 56 54 53 51 48 49 48 48 49 48 45 44 45 47 47 46 50 54 63 71 76 78 78 79
195 240 152 251 181 215 177 162 111 49 123 149 110 105 128 139 144 146 145 102 119 110 134 98 77 260 101 119 69 106 78 94 101 92 100 125 105 107 114 109 98 91 93 99 91 82 89 85 75 68 73 77 83 87 88 89 87 85 83 82 78 73 74 73 74 74 73 74 73 72 69 64 58 58 57 54 51 49 49 49 50 51 50 48 46 45 45 45 44 44 54 67 75 80 87 91 87
197 231 176 245 167 184 162 136 161 137 138 140 147 144 140 137 144 170 135 153 111 141 103 68 12 68 133 103 126 112 96 118 120 109 104 113 111 112 106 97 97 100 100 97 95 80 79 88 84 87 87 84 80 81 82 81 84 86 78 73 72 69 56 70 74 73 73 72 74 73 68 62 61 59 55 53 50 48 46 46 47 47 48 47 45 44 44 45 47 48 55 74 90 88 92 94 91
184 216 276 225 209 177 197 146 134 155 146 147 136 142 142 159 153 149 173 108 141 137 132 263 129 121 143 90 63 28 112 125 128 100 107 118 122 117 108 100 92 98 100 93 99 113 97 76 87 94 93 85 86 85 85 87 86 84 72 64 65 65 71 60 74 71 75 77 80 78 71 67 62 59 56 53 51 47 44 43 43 42 42 43 43 44 46 47 50 56 59 65 92 113 108 85 78
203 201 190 222 212 228 136 148 142 141 144 158 146 152 154 152 170 167 161 165 153 148 121 209 83 156 130 136 120 142 127 112 94 102 117 131 128 115 109 105 97 88 90 96 99 98 107 110 75 73 78 86 88 87 88 86 83 85 90 95 93 95 87 77 75 77 77 82 84 82 77 70 66 64 60 56 53 49 45 42 41 39 37 36 37 39 43 46 48 54 59 64 77 110 118 105 91
228 187 207 239 153 227 126 152 142 147 156 172 153 128 147 161 188 170 175 134 158 153 100 54 96 267 147 103 106 133 110 107 101 106 107 141 119 120 109 99 96 91 93 94 94 96 98 102 114 94 88 95 92 90 90 92 96 96 102 101 128 118 93 79 82 81 78 79 82 79 73 69 67 64 60 57 53 51 47 43 42 39 35 34 33 34 37 41 44 48 51 57 65 76 102 120 111
241 193 233 203 242 146 176 138 146 169 176 144 135 139 160 181 156 192 159 169 149 96 74 53 207 22 102 122 146 143 119 107 116 120 125 125 119 113 107 103 100 95 90 92 93 100 101 105 112 123 128 115 110 104 102 104 99 91 96 110 99 92 89 87 86 85 84 83 81 79 75 71 66 63 59 57 51 47 49 45 42 40 37 35 33 33 36 38 41 46 50 53 58 63 77 108 122
251 176 251 155 182 177 134 175 172 184 143 156 132 152 144 75 180 157 244 201 96 55 96 36 20 262 83 241 152 140 136 125 115 125 128 121 113 110 112 110 107 107 105 98 102 103 111 113 115 115 113 118 114 106 106 98 90 89 85 77 81 88 89 90 86 85 86 83 82 78 78 73 67 61 64 55 52 47 39 48 40 41 39 36 36 36 37 37 38 41 48 53 58 65 73 104 121
240 202 223 188 185 194 168 172 176 194 135 162 144 144 141 99 41 171 49 357 95 88 256 94 54 26 75 62 107 127 130 128 125 130 128 121 120 116 119 118 114 111 107 106 106 101 110 113 113 107 107 105 102 99 101 96 91 93 94 97 97 91 90 90 88 85 82 82 77 75 76 83 73 64 46 62 53 50 47 41 42 41 39 38 37 39 39 38 38 39 43 52 59 70 79 108 122
210 264 200 205 183 199 152 181 171 203 131 142 149 160 166 141 91 67 63 188 132 100 96 40 57 14 57 79 105 122 128 127 124 139 136 135 143 139 139 136 134 121 118 104 97 101 101 107 103 106 109 112 109 106 103 104 111 117 104 94 88 87 89 89 96 103 98 83 84 84 84 50 56 47 43 39 46 54 45 45 42 42 39 37 38 40 42 41 40 37 38 45 54 74 88 94 115
211 212 210 211 164 210 153 160 178 97 149 152 164 174 166 148 159 132 157 116 94 134 108 110 113 83 90 97 111 124 137 139 147 156 151 144 155 144 145 139 146 129 131 121 108 120 122 109 109 112 113 105 108 108 99 105 108 99 98 103 99 107 104 109 100 87 93 103 105 72 50 50 47 53 42 41 46 40 54 44 43 41 40 36 37 40 43 42 41 35 30 28 32 82 176 110 107
217 216 232 185 162 89 151 132 117 164 148 156 158 169 175 145 160 159 199 146 154 155 145 148 102 112 127 130 128 142 152 143 161 154 152 158 149 145 145 139 125 139 141 137 124 132 125 119 119 110 106 109 108 107 112 105 100 96 91 93 100 90 95 92 90 81 67 62 52 57 55 55 53 55 52 46 44 68 58 44 42 44 42 33 27 52 46 39 50 46 23 357 308 232 214 111 147
235 272 206 119 94 111 82 122 102 6 136 151 153 157 171 145 170 142 228 165 185 200 167 174 167 136 134 129 137 147 157 148 152 157 149 151 144 148 142 142 147 140 141 127 131 138 140 124 118 117 119 123 118 104 104 93 84 86 82 86 87 92 86 80 66 53 61 54 63 56 54 54 56 71 71 54 47 27 66 73 59 65 72 52 354 80 130 61 227 149 94 294 226 50 40 125 112
149 255 180 123 132 134 123 124 100 123 154 149 148 142 149 159 150 192 184 196 204 196 135 236 170 150 132 136 143 148 152 144 148 148 148 146 151 146 141 141 142 138 139 128 140 134 137 130 124 118 120 114 115 106 97 84 82 77 78 76 72 56 54 62 70 79 66 68 68 58 57 42 40 40 33 35 26 29 25 25 37 36 35 43 11 46 26 41 29 29 101 118 54 69 74 62 69
146 48 63 120 139 119 126 132 95 106 127 142 136 151 150 129 168 193 206 252 52 100 121 98 141 144 133 135 139 142 144 145 147 148 152 153 159 146 125 128 136 144 159 160 129 129 136 138 130 124 123 119 101 91 81 97 86 70 71 65 56 54 58 55 72 78 80 57 49 59 54 58 46 48 41 29 30 31 25 30 29 34 39 41 21 39 35 21 32 43 44 42 53 67 76 67 75
152 92 89 101 95 124 128 134 119 131 143 149 160 131 133 168 155 167 202 328 73 47 77 111 128 135 128 130 136 148 140 137 140 140 151 162 158 151 144 149 150 139 203 128 134 128 128 136 134 131 123 113 97 89 88 71 64 61 49 33 2 61 75 91 89 80 69 59 47 37 49 56 53 48 43 38 29 25 28 22 30 34 29 39 27 32 39 39 30 39 44 52 56 71 54 80 110
243 123 108 76 110 108 110 107 130 133 148 126 112 137 166 139 162 173 163 85 51 98 135 122 121 124 124 132 143 142 141 149 144 134 161 164 155 156 151 155 155 157 160 123 137 138 141 143 138 132 122 116 112 107 89 76 69 69 63 90 62 57 89 95 83 76 84 69 57 61 45 50 47 45 43 38 32 28 27 25 21 30 28 36 34 23 32 35 45 46 47 46 50 54 66 60 69
134 123 114 101 93 96 110 106 103 103 108 122 141 153 147 182 136 186 117 87 107 143 148 136 135 138 139 148 145 135 146 140 136 136 136 140 146 146 153 155 152 171 132 148 129 133 136 141 143 127 124 115 106 81 78 61 64 45 43 62 75 81 85 78 79 91 79 76 61 55 52 44 47 42 29 32 32 28 29 29 27 33 27 30 30 36 27 30 44 42 50 61 52 68 79 76 73
130 123 121 115 105 106 106 113 110 107 104 126 132 121 108 111 143 125 96 100 114 143 151 147 144 147 148 147 146 144 149 140 139 149 143 135 143 152 155 159 161 161 140 143 139 139 135 141 131 125 125 117 112 93 69 64 53 59 65 72 96 101 87 90 98 79 70 70 68 55 46 47 41 33 33 25 30 30 30 33 38 39 39 30 29 37 22 26 24 40 50 53 62 65 71 71 77
132 123 122 117 109 110 115 113 113 112 113 138 150 142 135 149 229 160 148 137 158 165 152 152 154 151 144 149 139 140 152 144 158 143 145 141 150 152 157 157 163 137 146 150 141 128 128 128 124 127 116 112 104 93 81 73 57 61 89 99 92 93 102 100 87 82 78 73 66 52 53 46 40 37 29 27 29 29 33 35 33 35 40 36 24 32 32 21 27 41 45 40 57 59 63 60 64
124 120 114 113 116 107 119 119 123 137 113 150 161 142 149 161 218 14 141 149 169 153 157 161 162 157 146 145 139 145 160 148 157 160 149 153 156 158 160 157 148 152 152 149 136 129 127 123 123 114 116 107 103 100 101 83 83 99 102 99 98 94 100 97 89 82 79 70 63 60 52 47 41 42 26 24 30 33 33 30 38 33 35 33 31 18 26 14 40 40 52 72 61 65 74 68 63
140 137 131 125 131 129 143 146 140 189 125 166 145 151 178 182 203 107 135 158 160 155 155 156 154 156 145 142 144 161 171 163 159 172 157 160 152 166 159 147 156 157 144 138 130 133 132 126 123 123 117 114 108 96 85 94 103 111 106 110 107 107 94 85 86 85 82 80 68 59 53 48 35 35 35 21 25 38 36 31 33 31 34 28 29 19 14 13 39 85 85 72 78 81 78 77 74
149 161 138 151 164 156 144 133 153 162 120 169 182 216 172 169 149 147 136 179 163 162 157 155 154 157 146 142 160 156 155 167 170 163 166 152 154 165 151 158 161 153 142 135 135 138 133 127 123 122 119 113 104 98 96 96 101 105 109 113 111 105 97 96 91 87 84 80 71 54 48 41 40 33 25 29 21 37 39 36 30 31 30 19 37 10 28 21 40 44 66 79 86 92 89 89 91
168 137 185 187 184 168 153 167 163 175 137 188 198 261 147 140 161 151 159 184 179 173 157 152 162 161 150 151 161 152 151 165 167 161 154 157 158 156 157 157 153 149 137 139 141 138 136 129 127 122 127 121 123 113 112 121 127 116 116 110 107 109 105 97 96 92 83 73 71 64 46 45 37 33 30 25 26 30 38 39 30 33 23 21 30 29 9 44 49 37 33 79 75 76 81 75 77
156 181 193 185 223 128 158 177 182 183 158 199 239 254 104 145 157 161 170 190 181 179 163 158 171 174 156 155 162 162 155 159 160 159 152 160 158 159 154 149 147 147 144 141 134 137 136 135 135 131 136 125 112 113 114 119 122 112 107 117 115 111 106 101 91 83 82 84 74 65 50 43 39 33 32 27 29 32 38 40 39 33 22 39 33 27 23 44 50 50 45 60 98 90 95 90 81
178 234 166 186 208 149 169 188 190 205 154 190 232 325 151 137 145 160 174 188 187 182 173 162 174 172 169 164 159 164 156 156 158 159 155 163 163 154 150 149 150 147 144 143 141 141 139 134 140 139 135 130 125 119 126 126 123 120 122 114 114 112 108 105 97 91 78 65 57 59 54 44 39 36 30 31 31 35 40 43 43 38 39 43 42 29 40 42 54 65 59 52 82 102 100 99 94
188 212 216 192 205 161 184 156 187 193 187 190 204 244 46 96 145 160 177 183 185 192 180 165 181 183 177 165 165 167 167 164 163 164 160 164 161 151 149 149 149 149 144 142 143 145 142 144 144 138 134 132 131 129 133 136 124 125 125 116 109 108 99 91 86 83 75 68 63 61 54 51 43 37 31 32 37 39 43 43 46 37 46 47 48 48 45 46 52 63 72 53 69 97 97 98 100
182 180 195 182 204 193 165 187 175 190 195 223 182 237 137 151 152 167 179 186 197 196 184 180 172 189 185 173 172 170 166 171 165 164 162 161 161 150 152 152 152 151 149 147 148 148 147 147 139 139 138 133 135 137 137 130 134 122 118 125 121 118 111 99 94 87 78 76 72 67 51 46 44 37 39 37 35 39 44 44 42 39 48 48 43 49 63 57 58 62 77 81 59 62 73 72 80
180 197 202 176 195 182 196 157 151 188 181 213 192 213 166 161 177 169 173 183 196 191 182 180 183 184 190 180 173 171 169 168 166 166 160 163 157 156 155 154 153 154 150 150 151 152 150 144 142 140 141 140 138 145 149 143 139 140 129 129 122 111 108 102 94 88 84 78 74 60 57 50 45 41 42 44 44 39 42 43 42 42 50 58 49 46 48 60 61 74 79 91 99 99 95 101 100
133 160 197 167 175 140 123 141 156 185 199 204 194 189 168 176 173 173 173 180 195 192 186 189 189 183 186 183 179 174 172 165 167 167 163 165 158 156 157 155 156 155 155 156 160 160 154 153 150 149 145 149 150 156 156 151 145 134 136 127 127 125 108 108 97 85 76 65 54 57 56 54 52 44 38 41 42 48 49 46 44 44 49 54 57 52 51 60 63 68 79 80 93 98 94 89 81
164 134 176 146 206 137 142 148 163 176 221 151 193 205 178 176 160 171 173 183 190 193 189 195 187 189 186 184 183 178 171 164 164 168 166 164 163 159 160 160 158 162 164 165 168 160 157 157 153 149 150 156 153 156 149 151 149 141 143 141 133 130 131 119 109 105 91 85 71 63 54 56 62 58 51 47 42 47 49 52 49 48 53 60 61 60 59 64 67 74 93 103 83 91 81 47 46
180 203 131 153 117 104 115 145 165 173 224 178 179 223 184 169 171 158 180 191 192 193 194 192 190 190 190 186 185 179 170 172 169 170 169 169 169 163 165 165 169 169 168 174 169 164 163 163 156 155 154 159 154 152 157 156 149 144 145 135 131 114 78 84 92 84 89 86 79 73 61 48 46 58 55 50 57 51 53 54 55 52 49 56 65 63 60 57 57 66 60 90 124 106 100 57 15
208 170 201 117 123 183 145 164 183 174 224 327 184 237 159 162 167 172 187 191 193 193 193 191 198 192 191 191 186 181 176 175 174 175 172 174 170 169 167 173 173 174 174 178 171 169 168 166 165 161 160 160 153 157 160 150 148 144 130 138 126 134 123 115 113 114 107 109 90 63 64 60 48 49 48 55 55 55 56 61 63 59 57 52 54 58 54 57 53 57 66 80 64 146 94 61 22
184 340 29 127 154 191 139 173 181 178 204 253 211 238 188 181 178 185 182 192 193 192 194 198 200 202 198 191 192 190 184 179 178 178 177 177 174 177 175 175 175 180 180 178 176 175 174 169 170 166 166 163 162 161 158 152 150 154 145 143 138 131 147 147 143 120 105 107 114 96 77 63 62 61 57 54 60 59 57 62 68 72 67 58 58 62 58 52 60 62 53 55 35 36 99 78 53
253 154 261 58 130 140 110 137 169 187 198 204 244 253 191 166 198 189 171 184 197 193 194 197 197 201 196 196 196 195 194 185 184 182 180 178 178 177 179 179 180 184 185 182 180 178 175 174 169 170 167 168 166 167 164 165 166 162 161 158 158 160 146 156 142 137 140 114 80 87 77 69 67 65 68 59 55 58 62 62 63 72 76 72 64 59 57 58 54 62 52 50 75 48 65 98 86
186 101 152 171 131 125 141 164 204 199 251 135 216 280 114 212 186 188 176 183 191 190 198 195 196 196 199 198 196 194 195 189 191 188 182 179 179 179 182 184 186 188 185 182 182 180 182 180 173 177 167 174 171 170 172 176 173 171 172 167 161 162 150 129 102 104 102 109 116 104 92 80 77 77 66 71 66 63 61 61 65 70 79 82 76 68 63 54 52 45 43 45 39 51 31 78 73
96 152 182 149 146 154 163 185 241 358 92 151 219 235 304 221 169 179 175 186 188 191 196 198 197 199 197 196 196 195 196 193 192 187 185 184 183 182 185 184 185 189 184 184 182 182 186 187 179 184 177 175 178 170 179 184 179 176 180 175 164 171 157 140 153 137 121 123 122 119 121 114 90 84 86 77 80 73 67 70 70 66 71 78 80 76 68 61 63 61 46 46 49 47 41 51 59
193 134 164 148 145 135 173 198 219 12 287 189 179 209 245 228 112 158 172 190 195 199 198 199 198 199 198 199 196 193 197 193 192 190 188 188 187 186 186 184 186 187 187 185 182 185 184 187 185 183 180 181 180 177 187 182 187 181 181 177 173 171 150 153 157 152 152 147 144 136 118 101 100 83 85 94 78 72 71 69 72 75 73 78 86 84 80 75 68 66 64 57 52 52 47 45 53
122 132 125 121 119 143 202 206 197 171 262 93 104 210 284 248 124 158 182 207 205 207 203 200 200 197 196 196 197 196 193 193 193 192 189 189 188 189 188 186 183 187 188 184 185 185 185 183 187 182 182 185 181 183 191 185 188 185 184 182 178 165 168 162 165 153 165 169 157 157 150 153 130 129 110 85 83 81 77 87 81 81 81 73 73 83 88 85 80 76 71 68 67 67 58 53 53
135 138 139 138 154 147 199 301 299 241 233 78 72 218 283 293 175 155 180 206 216 206 200 201 199 199 198 197 195 193 193 193 191 192 189 189 190 188 189 189 185 184 188 186 187 190 184 185 188 185 187 189 184 187 190 187 189 189 187 185 182 178 180 172 175 173 173 185 174 168 175 156 157 119 124 117 104 90 83 70 77 87 88 94 98 102 97 98 98 92 86 81 76 77 76 75 71
155 162 151 156 143 176 201 176 210 255 120 91 89 275 237 269 111 142 175 164 196 206 195 196 197 198 197 196 196 194 193 193 192 190 189 187 186 190 189 190 186 185 185 188 189 193 187 187 189 186 187 191 186 188 192 189 193 193 193 192 188 190 183 187 190 186 186 188 175 179 169 167 162 150 151 138 135 116 101 93 96 97 93 99 102 102 105 103 103 100 92 87 85 80 81 78 75
218 175 195 243 121 211 188 182 199 26 29 81 224 225 214 232 304 320 172 198 181 201 206 189 196 197 195 195 195 194 192 193 191 192 190 185 186 187 189 189 188 186 188 189 190 193 192 192 191 189 187 189 189 189 191 191 195 196 196 195 194 193 195 201 191 191 194 182 181 181 180 184 167 174 175 162 144 144 115 125 122 110 113 109 100 100 101 100 98 96 91 85 76 73 68 66 70
199 196 205 245 216 71 339 103 41 143 112 102 286 137 262 16 202 199 231 183 190 184 204 197 191 196 193 193 192 192 192 193 192 191 191 187 184 186 187 188 189 189 190 188 191 193 195 195 192 192 188 188 187 189 192 193 195 197 197 197 199 191 200 200 201 191 181 194 189 200 203 194 184 187 174 175 149 148 138 143 154 136 135 127 125 117 108 108 109 100 96 87 83 81 84 86 84
166 328 256 325 330 345 286 355 35 4 12 84 132 229 9 284 64 56 130 111 140 202 200 194 196 192 193 193 191 191 191 193 193 191 192 187 183 186 187 189 191 190 188 186 191 193 196 197 192 193 190 187 188 190 192 194 196 197 197 198 204 199 199 198 201 208 199 191 201 199 221 199 198 181 178 160 150 148 148 161 165 158 151 144 135 135 125 115 115 110 102 104 100 100 107 101 103
140 157 292 247 51 6 324 28 340 348 328 187 172 304 352 12 136 189 211 235 238 223 216 188 186 190 186 192 192 191 190 191 192 191 191 188 183 186 187 190 191 190 186 186 189 189 196 198 191 194 195 189 190 191 193 195 197 196 197 199 203 208 210 201 206 210 215 236 237 239 208 217 206 177 168 157 156 160 162 169 181 166 159 154 153 145 146 129 128 125 123 125 122 118 119 122 114
192 208 180 45 25 295 193 272 292 282 260 38 337 224 174 94 308 132 149 181 157 185 186 185 181 181 181 190 191 190 189 190 191 190 191 187 183 185 187 188 190 189 187 189 190 189 190 192 190 194 196 192 193 192 194 195 198 197 197 199 203 207 212 213 211 209 221 222 237 242 237 223 193 182 161 163 161 166 168 181 179 157 166 161 153 155 145 136 143 142 133 135 126 126 124 112 120
163 207 95 110 205 334 288 327 168 234 1 56 334 14 4 157 105 123 143 172 134 157 167 173 174 173 178 187 190 189 190 190 189 191 190 186 184 184 188 189 191 190 191 189 189 189 186 192 191 192 196 194 193 191 193 195 196 199 197 201 206 211 213 214 214 219 216 219 222 230 233 214 199 180 172 166 170 170 173 179 176 172 169 165 161 162 152 144 154 142 142 145 132 139 141 141 155
308 24 125 238 133 204 145 255 317 352 37 5 87 331 86 343 68 146 136 151 130 160 162 163 172 177 182 183 187 188 188 188 189 191 188 185 185 184 188 189 192 191 193 191 186 188 186 190 192 195 193 194 191 189 191 194 198 199 200 203 207 208 213 214 213 217 217 224 228 229 226 217 194 176 174 172 177 176 179 178 181 177 170 169 166 160 160 162 160 149 157 148 149 170 161 157 150
307 227 197 74 287 347 244 30 329 282 345 25 19 312 72 35 41 354 65 96 128 153 173 183 181 182 183 183 184 185 187 189 189 189 188 185 184 185 186 189 193 190 191 191 184 188 187 188 191 192 191 191 191 192 191 195 198 199 202 202 205 208 208 212 212 215 217 224 234 227 217 209 187 179 180 176 184 184 183 182 181 181 173 171 169 165 175 162 168 166 165 170 165 187 178 176 169
189 208 180 184 267 37 310 233 306 344 334 6 4 5 44 62 17 12 36 72 161 173 183 189 188 183 187 183 181 184 184 185 188 188 186 183 181 185 185 188 193 190 190 190 184 189 188 188 190 190 191 191 194 195 193 198 199 202 202 204 201 205 207 210 215 213 223 232 238 238 216 208 181 185 179 182 191 191 188 187 184 182 179 173 172 173 175 173 176 172 175 179 174 195 193 181 179
202 232 211 230 206 201 237 155 204 254 290 10 305 350 327 71 35 17 15 37 216 197 192 187 191 185 184 181 179 181 180 182 186 186 185 183 179 183 184 186 192 189 188 190 186 190 188 190 189 188 190 194 196 197 198 198 200 202 203 201 201 200 205 210 212 218 224 228 228 225 221 207 190 187 185 190 195 191 189 189 189 186 183 179 180 176 177 179 184 176 176 186 190 201 207 184 199